Flag for United Arab Emirates Weather past 2 weeks in Al Ain, Abu Dhabi, United Arab Emirates

Now
99 °F

Passing clouds.


Feels Like: 95 °F
Forecast: 78 / 100 °F
Wind: 6 mph from Northeast

Location: Al Ain International Airport


UV Index: 10 (Very high)

Visibility: N/A


Pressure: 29.74 "Hg

Humidity: 17%

Dew point: 46 °F

Location of Al AinLocation

Historic Weather in Al Ain

°F

Al Ain temperature yesterday

Maximum temperature yesterday: 95 °F (at 1:00 PM)
Minimum temperature yesterday: 77 °F (at 6:00 AM)
Average temperature yesterday: 84 °F

Past Weeks' High & Low Weather Summary

 TemperatureHumidityPressure
High106 °F (Apr 15, 3:00 PM)100% (Apr 7, 6:00 AM)30.09 "Hg (Apr 7, 6:00 AM)
Low61 °F (Apr 7, 7:00 AM)7% (Apr 11, 8:00 PM)29.74 "Hg (Apr 17, 4:00 PM)
Average87 °F25%29.90 "Hg
* Reported Apr 6 5:00 PM — Apr 21 5:00 PM, Al Ain, Weather by CustomWeather, © 2014

Note: Actual official high and low records may vary slightly from our data, if they occured in-between our weather recording intervals... More about our weather records

Advertising

Historic Weather Conditions — Data for Previous 24 hours

 ConditionsComfort  
Time TempWeatherWind HumidityBarometerVisibility
5:00 PM
Apr 21
99 °FPassing clouds.6 mph17%29.74 "HgN/A
4:00 PM99 °FSunny.7 mph13%29.74 "Hg10 mi
3:00 PM99 °FPassing clouds.7 mph16%29.77 "HgN/A
2:00 PM95 °FSunny.5 mph16%29.80 "Hg10 mi
1:00 PM95 °FSunny.6 mph16%29.80 "Hg10 mi
12:00 PM91 °FPassing clouds.7 mph21%29.83 "HgN/A
11:00 AM90 °FPassing clouds.7 mph26%29.83 "HgN/A
10:00 AM86 °FPassing clouds.5 mph31%29.86 "HgN/A
9:00 AM81 °FSunny.5 mph30%29.83 "Hg10 mi
8:00 AM75 °FSunny.5 mph36%29.83 "Hg10 mi
7:00 AM72 °FSunny.5 mph38%29.83 "Hg10 mi
6:00 AM66 °FSunny.5 mph49%29.80 "Hg10 mi
5:00 AM70 °FClear.5 mph46%29.80 "Hg10 mi
4:00 AM68 °FClear.3 mph49%29.80 "Hg10 mi
3:00 AM72 °FClear.3 mph44%29.80 "Hg10 mi
2:00 AM73 °FClear.7 mph41%29.80 "Hg10 mi
1:00 AM73 °FClear.5 mph41%29.80 "Hg10 mi
12:00 AM75 °FClear.3 mph39%29.83 "Hg10 mi
11:00 PM
Apr 20
77 °FClear.No wind36%29.83 "Hg10 mi
10:00 PM77 °FClear.3 mph39%29.83 "Hg10 mi
9:00 PM79 °FClear.6 mph34%29.83 "Hg10 mi
8:00 PM82 °FClear.9 mph28%29.83 "Hg10 mi
7:00 PM86 °FClear.13 mph24%29.80 "Hg10 mi
6:00 PM90 °FClear.15 mph17%29.77 "Hg5 mi
Weather by CustomWeather, © 2014

See weather overview